| time (UTC) | temp C | wind direction | speed KPH | gust KPH | rain 1hr cm | rain 24hr cm | rain mn cm | humidity % | barometer mb |
| 20260506094535 | 10 | 37 | 1.6 | 9.7 | 0.03 | 2.21 | 0.61 | 95 | 1009.8 |
| 20260506093515 | 10 | 37 | 1.6 | 6.4 | 0.03 | 2.21 | 0.61 | 95 | 1009.7 |
| 20260506092515 | 9 | 30 | 0.0 | 4.8 | 0.05 | 2.21 | 0.61 | 96 | 1009.7 |
| 20260506091515 | 9 | 31 | 1.6 | 8.0 | 0.05 | 2.21 | 0.61 | 96 | 1009.7 |
| 20260506090515 | 9 | 41 | 1.6 | 8.0 | 0.03 | 2.21 | 0.58 | 96 | 1009.6 |
| 20260506085515 | 9 | 9 | 1.6 | 12.9 | 0.03 | 2.21 | 0.58 | 96 | 1009.5 |
| 20260506084535 | 8 | 29 | 1.6 | 6.4 | 0.05 | 2.21 | 0.58 | 96 | 1009.4 |
| 20260506083515 | 8 | 41 | 3.2 | 6.4 | 0.05 | 2.21 | 0.58 | 96 | 1009.4 |
| 20260506082515 | 8 | 30 | 1.6 | 8.0 | 0.03 | 2.21 | 0.56 | 96 | 1009.3 |
| 20260506081515 | 8 | 27 | 1.6 | 12.9 | 0.03 | 2.21 | 0.56 | 96 | 1009.2 |
| 20260506080535 | 8 | 54 | 1.6 | 11.3 | 0.05 | 2.21 | 0.56 | 97 | 1009.0 |
| 20260506073515 | 8 | 35 | 3.2 | 12.9 | 0.05 | 2.21 | 0.53 | 97 | 1008.8 |
| 20260506072515 | 8 | 36 | 3.2 | 9.7 | 0.05 | 2.21 | 0.53 | 97 | 1008.7 |
| 20260506071515 | 8 | 37 | 1.6 | 12.9 | 0.05 | 2.21 | 0.53 | 97 | 1008.5 |
| 20260506070515 | 8 | 46 | 1.6 | 11.3 | 0.03 | 2.21 | 0.51 | 97 | 1008.4 |
| 20260506061518 | 8 | 39 | 3.2 | 11.3 | 0.05 | 2.18 | 0.51 | 97 | 1008.0 |
| 20260506060517 | 8 | 33 | 3.2 | 8.0 | 0.05 | 2.18 | 0.51 | 97 | 1007.9 |
| 20260506050517 | 8 | 32 | 4.8 | 12.9 | 0.05 | 2.13 | 0.46 | 97 | 1007.3 |
| 20260506044518 | 8 | 33 | 1.6 | 9.7 | 0.05 | 2.11 | 0.43 | 97 | 1007.2 |
| 20260506043517 | 8 | 44 | 3.2 | 6.4 | 0.05 | 2.11 | 0.43 | 97 | 1007.1 |
| 20260506042537 | 8 | 30 | 3.2 | 14.5 | 0.05 | 2.11 | 0.43 | 97 | 1007.1 |
| 20260506041518 | 8 | 10 | 1.6 | 8.0 | 0.05 | 2.11 | 0.43 | 97 | 1007.1 |
| 20260506040518 | 8 | 35 | 3.2 | 9.7 | 0.05 | 2.11 | 0.43 | 97 | 1007.1 |
| 20260506035517 | 8 | 35 | 1.6 | 11.3 | 0.05 | 2.08 | 0.41 | 97 | 1007.1 |
| 20260506034517 | 8 | 70 | 1.6 | 6.4 | 0.05 | 2.08 | 0.41 | 97 | 1007.1 |
| 20260506033518 | 8 | 28 | 3.2 | 9.7 | 0.05 | 2.06 | 0.38 | 97 | 1007.1 |
| 20260506032518 | 8 | 33 | 1.6 | 8.0 | 0.05 | 2.06 | 0.38 | 97 | 1007.0 |
| 20260506031537 | 8 | 41 | 1.6 | 8.0 | 0.05 | 2.03 | 0.36 | 97 | 1007.1 |
| 20260506030515 | 9 | 50 | 1.6 | 6.4 | 0.05 | 2.03 | 0.36 | 97 | 1007.1 |
| 20260506025555 | 9 | 48 | 1.6 | 6.4 | 0.05 | 2.03 | 0.36 | 97 | 1007.2 |
| 20260506024515 | 9 | 44 | 1.6 | 8.0 | 0.05 | 2.03 | 0.33 | 97 | 1007.3 |
| 20260506023515 | 9 | 28 | 0.0 | 3.2 | 0.05 | 2.03 | 0.33 | 97 | 1007.3 |
| 20260506022515 | 9 | 46 | 1.6 | 4.8 | 0.05 | 2.01 | 0.33 | 97 | 1007.3 |
| 20260506021515 | 9 | 52 | 1.6 | 9.7 | 0.05 | 2.01 | 0.33 | 97 | 1007.3 |
| 20260506020515 | 9 | 40 | 1.6 | 8.0 | 0.05 | 1.98 | 0.30 | 97 | 1007.2 |
| 20260506015515 | 10 | 33 | 1.6 | 8.0 | 0.05 | 1.98 | 0.30 | 97 | 1007.2 |
| 20260506014535 | 10 | 7 | 1.6 | 6.4 | 0.05 | 1.96 | 0.28 | 97 | 1007.3 |
| 20260506013515 | 10 | 60 | 0.0 | 4.8 | 0.05 | 1.96 | 0.28 | 97 | 1007.2 |
| 20260506012515 | 10 | 41 | 0.0 | 4.8 | 0.05 | 1.93 | 0.25 | 97 | 1007.3 |
| 20260506011515 | 10 | 44 | 1.6 | 8.0 | 0.05 | 1.93 | 0.25 | 97 | 1007.2 |
| 20260506010515 | 10 | 39 | 1.6 | 6.4 | 0.05 | 1.93 | 0.23 | 97 | 1007.3 |
| 20260506005515 | 10 | 49 | 1.6 | 8.0 | 0.08 | 1.93 | 0.23 | 97 | 1007.2 |
| 20260506004515 | 10 | 45 | 3.2 | 9.7 | 0.05 | 1.91 | 0.23 | 97 | 1007.3 |
| 20260506003515 | 10 | 38 | 1.6 | 8.0 | 0.08 | 1.91 | 0.23 | 97 | 1007.3 |
| 20260506002515 | 10 | 38 | 1.6 | 11.3 | 0.05 | 1.88 | 0.20 | 97 | 1007.3 |
| 20260506001515 | 10 | 40 | 3.2 | 11.3 | 0.08 | 1.88 | 0.20 | 97 | 1007.3 |
| 20260506000518 | 10 | 45 | 3.2 | 14.5 | 0.08 | 1.85 | 0.18 | 97 | 1007.4 |
| 20260505235516 | 10 | 43 | 1.6 | 8.0 | 0.05 | 1.83 | 0.15 | 97 | 1007.4 |
| 20260505234517 | 11 | 29 | 3.2 | 11.3 | 0.08 | 1.83 | 0.15 | 97 | 1007.4 |
| 20260505233516 | 11 | 44 | 0.0 | 6.4 | 0.08 | 1.83 | 0.15 | 97 | 1007.4 |
| 20260505232517 | 11 | 0.0 | 0.0 | 0.08 | 1.83 | 0.15 | 97 | 1007.4 | |
| 20260505231516 | 11 | 352 | 0.0 | 1.6 | 0.08 | 1.80 | 0.13 | 97 | 1007.5 |
| 20260505230518 | 11 | 352 | 0.0 | 1.6 | 0.08 | 1.78 | 0.10 | 97 | 1007.4 |
| 20260505225516 | 11 | 58 | 0.0 | 3.2 | 0.10 | 1.78 | 0.10 | 97 | 1007.4 |
| 20260505224537 | 11 | 33 | 0.0 | 6.4 | 0.10 | 1.75 | 0.08 | 97 | 1007.4 |
| 20260505223516 | 11 | 39 | 3.2 | 9.7 | 0.08 | 1.75 | 0.05 | 97 | 1007.4 |
| 20260505222517 | 11 | 40 | 0.0 | 12.9 | 0.10 | 1.75 | 0.05 | 97 | 1007.4 |
| 20260505221556 | 11 | 40 | 1.6 | 6.4 | 0.10 | 1.73 | 0.05 | 97 | 1007.4 |
| 20260505220517 | 11 | 41 | 3.2 | 9.7 | 0.10 | 1.70 | 0.03 | 97 | 1007.5 |
| 20260505215516 | 11 | 29 | 1.6 | 8.0 | 0.10 | 1.68 | 1.68 | 97 | 1007.5 |
| 20260505214518 | 11 | 30 | 1.6 | 9.7 | 0.10 | 1.65 | 1.65 | 97 | 1007.6 |
| 20260505213516 | 11 | 20 | 1.6 | 4.8 | 0.13 | 1.65 | 1.65 | 97 | 1007.7 |
| 20260505212518 | 11 | 52 | 1.6 | 4.8 | 0.13 | 1.65 | 1.65 | 97 | 1007.8 |
| 20260505211516 | 11 | 350 | 0.0 | 3.2 | 0.13 | 1.63 | 1.63 | 97 | 1007.7 |
| 20260505210517 | 11 | 291 | 1.6 | 4.8 | 0.13 | 1.60 | 1.60 | 97 | 1007.7 |
| 20260505205516 | 11 | 269 | 0.0 | 4.8 | 0.10 | 1.57 | 1.57 | 97 | 1007.8 |
| 20260505204517 | 11 | 289 | 1.6 | 11.3 | 0.10 | 1.55 | 1.55 | 97 | 1007.7 |
| 20260505203536 | 11 | 284 | 1.6 | 6.4 | 0.10 | 1.55 | 1.55 | 97 | 1007.7 |
| 20260505202517 | 11 | 286 | 1.6 | 9.7 | 0.10 | 1.52 | 1.52 | 97 | 1007.6 |
| 20260505201517 | 11 | 287 | 1.6 | 4.8 | 0.08 | 1.50 | 1.50 | 97 | 1007.6 |
| 20260505200517 | 11 | 288 | 0.0 | 6.4 | 0.08 | 1.47 | 1.47 | 97 | 1007.5 |
| 20260505195557 | 11 | 286 | 1.6 | 6.4 | 0.10 | 1.47 | 1.47 | 97 | 1007.4 |
| 20260505194537 | 11 | 271 | 0.0 | 3.2 | 0.13 | 1.45 | 1.45 | 97 | 1007.3 |
| 20260505193517 | 11 | 278 | 0.0 | 1.6 | 0.13 | 1.45 | 1.45 | 97 | 1007.2 |
| 20260505192517 | 11 | 285 | 0.0 | 4.8 | 0.13 | 1.42 | 1.42 | 97 | 1007.1 |
| 20260505191517 | 11 | 262 | 0.0 | 3.2 | 0.15 | 1.42 | 1.42 | 97 | 1007.0 |
| 20260505190517 | 11 | 291 | 1.6 | 4.8 | 0.15 | 1.40 | 1.40 | 97 | 1007.0 |
| 20260505185517 | 11 | 0.0 | 0.0 | 0.15 | 1.37 | 1.37 | 97 | 1006.9 | |
| 20260505184517 | 11 | 291 | 0.0 | 6.4 | 0.15 | 1.35 | 1.35 | 97 | 1006.9 |
| 20260505183557 | 11 | 294 | 1.6 | 8.0 | 0.15 | 1.32 | 1.32 | 96 | 1006.8 |
| 20260505182517 | 11 | 286 | 1.6 | 6.4 | 0.15 | 1.30 | 1.30 | 96 | 1006.7 |
| 20260505181517 | 11 | 271 | 0.0 | 3.2 | 0.15 | 1.27 | 1.27 | 96 | 1006.7 |
| 20260505180517 | 11 | 305 | 1.6 | 6.4 | 0.15 | 1.24 | 1.24 | 96 | 1006.7 |
| 20260505175517 | 11 | 281 | 1.6 | 6.4 | 0.15 | 1.22 | 1.22 | 96 | 1006.7 |
| 20260505174515 | 11 | 0.0 | 3.2 | 0.15 | 1.19 | 1.19 | 96 | 1006.7 | |
| 20260505173515 | 11 | 314 | 0.0 | 4.8 | 0.13 | 1.17 | 1.17 | 96 | 1006.8 |
| 20260505172515 | 11 | 34 | 1.6 | 4.8 | 0.13 | 1.14 | 1.14 | 96 | 1006.8 |
| 20260505171515 | 11 | 41 | 1.6 | 6.4 | 0.15 | 1.12 | 1.12 | 96 | 1006.8 |
| 20260505170515 | 11 | 48 | 0.0 | 3.2 | 0.15 | 1.09 | 1.09 | 96 | 1006.8 |
| 20260505165535 | 11 | 25 | 1.6 | 4.8 | 0.15 | 1.09 | 1.09 | 96 | 1006.7 |
| 20260505164515 | 11 | 40 | 1.6 | 6.4 | 0.15 | 1.07 | 1.07 | 96 | 1006.7 |
| 20260505163515 | 11 | 38 | 3.2 | 8.0 | 0.15 | 1.04 | 1.04 | 96 | 1006.8 |
| 20260505162515 | 11 | 30 | 1.6 | 8.0 | 0.18 | 1.02 | 1.02 | 96 | 1006.7 |
| 20260505161515 | 11 | 36 | 1.6 | 8.0 | 0.18 | 0.99 | 0.99 | 96 | 1006.7 |
| 20260505160515 | 11 | 41 | 3.2 | 16.1 | 0.23 | 0.97 | 0.97 | 96 | 1006.7 |
| 20260505152535 | 11 | 50 | 4.8 | 16.1 | 0.23 | 0.86 | 0.84 | 96 | 1006.6 |
| 20260505151515 | 11 | 38 | 3.2 | 14.5 | 0.23 | 0.81 | 0.79 | 96 | 1006.6 |
| 20260505150515 | 11 | 36 | 4.8 | 19.3 | 0.20 | 0.76 | 0.74 | 96 | 1006.6 |
| 20260505140518 | 12 | 38 | 4.8 | 16.1 | 0.25 | 0.58 | 0.53 | 96 | 1006.5 |
| 20260505124517 | 12 | 38 | 3.2 | 12.9 | 0.05 | 0.36 | 0.23 | 96 | 1006.6 |
| 20260505123517 | 12 | 43 | 4.8 | 14.5 | 0.05 | 0.36 | 0.20 | 96 | 1006.6 |
| 20260505122537 | 12 | 33 | 4.8 | 16.1 | 0.03 | 0.33 | 0.18 | 96 | 1006.5 |
| 20260505121517 | 12 | 34 | 8.0 | 20.9 | 0.03 | 0.33 | 0.18 | 96 | 1006.5 |
| 20260505120517 | 12 | 32 | 4.8 | 16.1 | 0.00 | 0.33 | 0.15 | 96 | 1006.6 |
| 20260505115517 | 12 | 36 | 3.2 | 12.9 | 0.00 | 0.41 | 0.15 | 96 | 1006.7 |
| 20260505114517 | 12 | 42 | 4.8 | 17.7 | 0.00 | 0.43 | 0.15 | 96 | 1006.7 |
| 20260505113515 | 12 | 41 | 6.4 | 20.9 | 0.03 | 0.43 | 0.15 | 96 | 1006.7 |
| 20260505112515 | 12 | 40 | 6.4 | 16.1 | 0.03 | 0.43 | 0.15 | 96 | 1006.8 |
| 20260505111634 | 12 | 43 | 4.8 | 14.5 | 0.05 | 0.43 | 0.15 | 96 | 1006.9 |
| 20260505110515 | 12 | 41 | 8.0 | 20.9 | 0.05 | 0.43 | 0.15 | 96 | 1007.1 |
| 20260505101515 | 12 | 42 | 4.8 | 11.3 | 0.05 | 0.41 | 0.13 | 96 | 1007.4 |
| 20260505100514 | 12 | 32 | 3.2 | 11.3 | 0.05 | 0.41 | 0.13 | 96 | 1007.5 |
| 20260505095535 | 12 | 41 | 3.2 | 9.7 | 0.05 | 0.38 | 0.10 | 96 | 1007.5 |